Location: Clermont
(50.2608°N, 4.3172°E)
Time: 08:26:24
(UTC+00:00)

USA 234 - Pass Details

Date: 13 August 2020
Orbit: 1101 x 1107 km, 123.0° (Epoch: 25 September)

Event Time Altitude Azimuth Distance (km) Brightness Sun altitude
Exits shadow 21:58:06 37° 157° (SSE) 1,653 3.6 -21.1°
Maximum altitude 22:00:41 60° 219° (SW) 1,251 3.4 -21.3°
Drops below altitude 10° 22:07:09 10° 299° (WNW) 2,966 6.3 -21.8°
Sets 22:09:41 0° 303° (WNW) 3,928 7.1 -22.0°
